Retour au catalogue

ARIANE 44L DEB

ActifHEO
NORAD 28576·DEBRIS·🇫🇷 France

Lancé Oct 29, 1991 depuis Guiana Space Centre

Loading…

Prochains Passages (prochaines 24 heures)

TLE

FraisSource: Space-Track

Époque: Sep 14, 2026, 22:08 UTC

1 28576U 91075N   26257.92260742 -.00000319  00000-0 -69466-2 0  9992
2 28576   6.7782 293.2453 6596996 186.0138 107.5508  2.83940068256127

Suivez ARIANE 44L DEB en temps réel avec AllMySat

Download on the App Store